User: anonymous   Login
Location: Unspecified
(0.0000°N, 0.0000°E)
Time: 11:03:03
(UTC+00:00)
Language:

AO-73 - Orbit

View from above orbital plane
View from above orbital plane
View from above satellite
View from above satellite

Ground track
Ground track

The orbit data is extracted from the following two-line orbital elements,

1 39444U 13066AE  17269.11465481  .00000345  00000-0  49418-4 0  9997
2 39444  97.6217 307.5974 0057049 296.8073  62.7312 14.81520188206550
Epoch (UTC): 26 September 2017 02:45:06
Eccentricity: 0.0057049
inclination: 97.6217°
perigee height: 584 km
apogee height: 664 km
right ascension of ascending node: 307.5974°
argument of perigee: 296.8073°
revolutions per day: 14.81520188
mean anomaly at epoch: 62.7312°
orbit number at epoch: 20655

The dashed part of the orbit path shows where the satellite is in the earth's shadow,  

DLR